UAL1495 KEWR-PHNL

Flight info

Callsign UAL1495
Flight time N/A
Altitude 40000
Route DEVL1 NEWEL J60 GYNTS BEERS T434 SCAAM ZIINE GIJ V228 THORR UMUZI V228 FARMM V24 KRENA SMULA GRIFT T302 DBQ V100 DEWAR VIGGR Q122 LCU J94 BAM J32 SAC V150 COMMO BDEGA JESTE ROVUE BEBOP BITTA INOYI1
Aircraft B78X/H-SDE1E2E3FGHIJ2J3J4J5M1RWXY/LB1D1

Departure

Time 2026-04-23 14:28
Airport Newark Liberty International Airport (KEWR)

Arrival

Time N/A
Airport Daniel K. Inouye International Airport (PHNL)
Time Latitude Longitude Altitude Speed Heading
2026-04-23 14:18 40.68941 -74.17475 29 ft 0 kts 20°
2026-04-23 14:24 40.68936 -74.17477 32 ft 3 kts 20°
2026-04-23 14:24 40.68895 -74.17497 25 ft 8 kts 20°
2026-04-23 14:25 40.68862 -74.17535 26 ft 1 kts 109°
2026-04-23 14:25 40.68862 -74.17534 26 ft 0 kts 109°
2026-04-23 14:25 40.68861 -74.17532 26 ft 3 kts 112°
2026-04-23 14:25 40.68807 -74.17389 28 ft 29 kts 116°
2026-04-23 14:26 40.68702 -74.17360 31 ft 22 kts 206°
2026-04-23 14:26 40.68509 -74.17484 30 ft 40 kts 206°
2026-04-23 14:26 40.68211 -74.17677 28 ft 52 kts 206°
2026-04-23 14:26 40.67916 -74.17866 28 ft 40 kts 206°
2026-04-23 14:27 40.67705 -74.17999 28 ft 16 kts 205°
2026-04-23 14:27 40.67626 -74.18036 28 ft 12 kts 183°
2026-04-23 14:27 40.67575 -74.17937 28 ft 17 kts 67°
2026-04-23 14:27 40.67780 -74.17791 28 ft 64 kts 26°
2026-04-23 14:28 40.68381 -74.17408 29 ft 126 kts 26°
2026-04-23 14:28 40.69344 -74.16798 33 ft 179 kts 26°
2026-04-23 14:28 40.70524 -74.16052 413 ft 193 kts 27°
2026-04-23 14:28 40.71717 -74.15258 1175 ft 193 kts 25°
2026-04-23 14:29 40.72941 -74.14409 1780 ft 204 kts 26°
2026-04-23 14:29 40.74170 -74.13506 2563 ft 206 kts 27°
2026-04-23 14:29 40.75422 -74.12535 3289 ft 212 kts 27°
2026-04-23 14:29 40.76718 -74.11551 3928 ft 222 kts 23°
2026-04-23 14:30 40.78198 -74.10881 4504 ft 227 kts
2026-04-23 14:30 40.79765 -74.11056 5151 ft 229 kts 335°
2026-04-23 14:30 40.80996 -74.12383 5820 ft 236 kts 299°
2026-04-23 14:30 40.81385 -74.14518 6499 ft 252 kts 276°
2026-04-23 14:31 40.81284 -74.16848 6679 ft 251 kts 270°
2026-04-23 14:31 40.81201 -74.19125 7164 ft 252 kts 275°
2026-04-23 14:31 40.81213 -74.21416 7839 ft 248 kts 276°
2026-04-23 14:31 40.81239 -74.23734 8322 ft 255 kts 277°
2026-04-23 14:32 40.81285 -74.26038 8825 ft 253 kts 277°
2026-04-23 14:32 40.81343 -74.28337 9343 ft 254 kts 277°
2026-04-23 14:32 40.81407 -74.30673 9892 ft 255 kts 278°
2026-04-23 14:32 40.81777 -74.32923 10513 ft 249 kts 296°
2026-04-23 14:33 40.82730 -74.34799 11247 ft 248 kts 317°
2026-04-23 14:33 40.84163 -74.36114 11774 ft 252 kts 328°
2026-04-23 14:33 40.85694 -74.37291 12315 ft 257 kts 326°
2026-04-23 14:33 40.87221 -74.38494 12845 ft 256 kts 326°
2026-04-23 14:34 40.88769 -74.39711 13381 ft 259 kts 326°
2026-04-23 14:34 40.90313 -74.40919 13910 ft 266 kts 326°
2026-04-23 14:34 40.91943 -74.42196 14421 ft 278 kts 326°
2026-04-23 14:34 40.93642 -74.43528 14950 ft 290 kts 326°
2026-04-23 14:35 40.95415 -74.44919 15492 ft 301 kts 327°
2026-04-23 14:35 40.97243 -74.46352 16041 ft 310 kts 327°
2026-04-23 14:35 40.99124 -74.47828 16594 ft 319 kts 327°
2026-04-23 14:35 41.00962 -74.49508 17168 ft 324 kts 317°
2026-04-23 14:36 41.02521 -74.51694 17761 ft 332 kts 307°
2026-04-23 14:36 41.03731 -74.54335 18350 ft 340 kts 296°
2026-04-23 14:36 41.04493 -74.57286 18854 ft 347 kts 286°
2026-04-23 14:36 41.04759 -74.60496 19379 ft 357 kts 274°
2026-04-23 14:37 41.04461 -74.63806 19899 ft 369 kts 262°
2026-04-23 14:37 41.03735 -74.67099 20424 ft 375 kts 261°
2026-04-23 14:37 41.02984 -74.70415 20936 ft 378 kts 260°
2026-04-23 14:37 41.02213 -74.73762 21453 ft 380 kts 260°
2026-04-23 14:38 41.01438 -74.77127 21978 ft 384 kts 261°
2026-04-23 14:38 41.00661 -74.80523 22510 ft 387 kts 261°
2026-04-23 14:38 40.99886 -74.83902 23040 ft 390 kts 261°
2026-04-23 14:38 40.99093 -74.87340 23584 ft 392 kts 261°
2026-04-23 14:39 40.98294 -74.90805 24031 ft 395 kts 261°
2026-04-23 14:39 40.97489 -74.94296 24496 ft 398 kts 261°
2026-04-23 14:39 40.96677 -74.97802 24958 ft 400 kts 261°
2026-04-23 14:39 40.95860 -75.01327 25438 ft 402 kts 261°
2026-04-23 14:40 40.95039 -75.04868 25928 ft 404 kts 262°
2026-04-23 14:40 40.94223 -75.08385 26383 ft 406 kts 261°
2026-04-23 14:40 40.93389 -75.11963 26875 ft 408 kts 262°
2026-04-23 14:40 40.92551 -75.15556 27374 ft 409 kts 262°
2026-04-23 14:41 40.91712 -75.19147 27878 ft 409 kts 262°
2026-04-23 14:41 40.90873 -75.22735 28394 ft 408 kts 262°
2026-04-23 14:41 40.90036 -75.26314 28919 ft 407 kts 262°
2026-04-23 14:41 40.89197 -75.29889 29442 ft 407 kts 263°
2026-04-23 14:42 40.88359 -75.33455 29978 ft 405 kts 263°
2026-04-23 14:42 40.87569 -75.37010 30450 ft 397 kts 271°
2026-04-23 14:42 40.87362 -75.40521 30971 ft 377 kts 281°
2026-04-23 14:42 40.87584 -75.43854 31413 ft 364 kts 289°
2026-04-23 14:43 40.88048 -75.47110 31897 ft 360 kts 288°
2026-04-23 14:43 40.88499 -75.50332 32379 ft 354 kts 289°
2026-04-23 14:43 40.88942 -75.53523 32857 ft 352 kts 288°
2026-04-23 14:43 40.89327 -75.56728 33141 ft 355 kts 287°
2026-04-23 14:44 40.89706 -75.59956 33379 ft 356 kts 288°
2026-04-23 14:44 40.90106 -75.63196 33624 ft 358 kts 288°
2026-04-23 14:44 40.90513 -75.66447 33888 ft 359 kts 288°
2026-04-23 14:44 40.90915 -75.69711 34129 ft 361 kts 288°
2026-04-23 14:45 40.91308 -75.72955 34371 ft 363 kts 288°
2026-04-23 14:45 40.91708 -75.76246 34610 ft 363 kts 288°
2026-04-23 14:45 40.92111 -75.79544 34809 ft 364 kts 287°
2026-04-23 14:45 40.92513 -75.82851 35041 ft 364 kts 287°
2026-04-23 14:46 40.92914 -75.86163 35284 ft 365 kts 287°
2026-04-23 14:46 40.93315 -75.89486 35520 ft 366 kts 287°
2026-04-23 14:46 40.93715 -75.92808 35759 ft 366 kts 287°
2026-04-23 14:46 40.94115 -75.96126 36049 ft 365 kts 288°
2026-04-23 14:47 40.94507 -75.99395 36281 ft 365 kts 288°
2026-04-23 14:47 40.94902 -76.02701 36518 ft 364 kts 288°
2026-04-23 14:47 40.95296 -76.05998 36760 ft 362 kts 288°
2026-04-23 14:47 40.95687 -76.09282 36998 ft 361 kts 288°
2026-04-23 14:48 40.96076 -76.12558 37172 ft 361 kts 288°
2026-04-23 14:48 40.96468 -76.15846 37204 ft 363 kts 288°
2026-04-23 14:48 40.97252 -76.22487 37400 ft 367 kts 287°
2026-04-23 14:49 40.97639 -76.25783 37508 ft 368 kts 288°
2026-04-23 14:49 40.98025 -76.29070 37605 ft 370 kts 287°
2026-04-23 14:49 40.98419 -76.32437 37707 ft 370 kts 287°
2026-04-23 14:49 40.98813 -76.35810 37821 ft 372 kts 287°
2026-04-23 14:50 40.99207 -76.39202 37930 ft 373 kts 287°
2026-04-23 14:50 40.99601 -76.42598 38035 ft 374 kts 287°
2026-04-23 14:50 40.99996 -76.46007 38149 ft 375 kts 287°
2026-04-23 14:50 41.00390 -76.49422 38265 ft 376 kts 287°
2026-04-23 14:51 41.01175 -76.56242 38457 ft 378 kts 287°
2026-04-23 14:51 41.01569 -76.59687 38576 ft 379 kts 287°
2026-04-23 14:51 41.01963 -76.63136 38682 ft 379 kts 287°
2026-04-23 14:52 41.02824 -76.70013 38875 ft 378 kts 288°
2026-04-23 14:52 41.03750 -76.76868 39047 ft 379 kts 288°
2026-04-23 14:53 41.04668 -76.83689 39217 ft 379 kts 288°
2026-04-23 14:53 41.05593 -76.90560 39359 ft 379 kts 288°
2026-04-23 14:54 41.06512 -76.97423 39528 ft 378 kts 287°
2026-04-23 14:54 41.07428 -77.04298 39700 ft 379 kts 287°
2026-04-23 14:55 41.08332 -77.11113 39874 ft 378 kts 287°
2026-04-23 14:55 41.09237 -77.17959 40029 ft 376 kts 287°
2026-04-23 14:56 41.10138 -77.24807 40053 ft 378 kts 287°
2026-04-23 14:56 41.11037 -77.31687 40055 ft 380 kts 287°
2026-04-23 14:57 41.11934 -77.38574 40074 ft 383 kts 287°
2026-04-23 14:57 41.12840 -77.45569 40064 ft 387 kts 286°
2026-04-23 14:58 41.13751 -77.52638 40068 ft 391 kts 286°
2026-04-23 14:58 41.14668 -77.59784 40036 ft 395 kts 286°
2026-04-23 14:59 41.15583 -77.66958 40081 ft 399 kts 286°
2026-04-23 14:59 41.16501 -77.74194 40086 ft 404 kts 286°
2026-04-23 15:00 41.17436 -77.81600 40081 ft 410 kts 285°
2026-04-23 15:00 41.18378 -77.89097 40077 ft 415 kts 285°
2026-04-23 15:01 41.19331 -77.96727 40052 ft 421 kts 285°
2026-04-23 15:01 41.20243 -78.04408 40083 ft 427 kts 284°